STARLINK-1770, 46383

Orbit data source: Space-Track

STARLINK-1770, 46383 is a payload satellite owned by SpaceX/Seattle (US) in LEO that was launched on Thu, 03 Sep 2020 UTC via an FALCON 9 launch vehicle from the Air Force Eastern Test Range (AFETR). Payload-class satellites include a variety of spacecraft equipped with specific instruments for various scientific and technological missions. These include communications satellites like Starlink; space stations such as the ISS; scientific satellites like the Hubble; Earth observation satellites from companies like Planet Labs, Umbra, and HawkEye 360; GPS; miniature CubeSats for education and research; and military/defense satellites.

Loading next visibility...
Identifier
46383, 2020-062BL
Orbit
LEO
Country
Flag of USUS
Related business
Manufacturer
SpaceX/Seattle
Mission
Partially operational Commercial Communications
Bus & Motor
STARLINK, Unknown motor
Mass
260 kg wet, ~248 kg dry
Launch date (UTC)
2020-09-03 (6 years ago)
Launch vehicle
FALCON 9
Launch site
Air Force Eastern Test Range (AFETR)
Object type
Payload
Rocket body
Debris
Shape & HBR
Box + 1 Pan, 10.1 m
Radar Cross Section
13.562 m², Large (>1 m²)

Expand to show TLE details & history
Last TLE update: 18 hours ago

TLE from 18 hours ago
0 STARLINK-1770
1 46383U 20062BL  26166.31576621  .00072552  00000-0  40746-3 0  9991
2 46383  53.0360 192.1279 0003515 347.4383  12.6549 15.78624037320511
Epoch: 2026-06-15T07:34Z
TLE epoch observation values (Epoch: 2026-06-15T07:34:42.200Z)
Latitude
-0.00002°
Longitude
174.84814°
Altitude
332.941 km
Speed
7.711 km/s
True Right ascension
12h 48m 30s
True Declination
0° 00' 00"
Sunlit
Object was in daylight at epoch
Visualization orbit readout
Latitude
Unknown
Longitude
Unknown
Altitude
Unknown
Speed
Unknown
Apparent Right ascension
Unknown
Apparent Declination
Unknown
Sunlit
N/A
Visualization observer readout
Local Sidereal Time
12:20:16
Azimuth
Unknown
Elevation
Unknown
Doppler factor
Unknown
Orbital elements
Apogee altitude
336.98 km
Perigee altitude
332.261 km
Semi-major axis
6,712.757 km
Eccentricity
0.00035
Inclination
53.036°
RAAN
192.1279°
Arg. of periapsis
347.4383°
True anomaly
12.66373°
Mean anomaly
12.6549°
Eccentric anomaly
12.65931°
Mean motion
3.94631 °/min
Orbital period
91.22 mins
BSTAR
0.00040746
Loading maneuver chart data...
Computing Atmospheric mass density...

Documentation

Showing up to 5 results
|